Rochester/St. Mary's Hospita, MN
on Monday, June 9, 2014

Monday
Previous Day Next Day
Daily Summary
 ActualAverage (KRST)Record (KRST)
Temperature
Mean Temperature °F 66°F  
Max Temperature 72°F 76°F 93°F (1973)
Min Temperature 60°F 55°F 31°F (1937)
Degree Days
Heating Degree Days 0 2  
Month to date heating degree days 29  
Since 1 July heating degree days 7699  
Cooling Degree Days 0 3  
Month to date cooling degree days 23  
Year to date cooling degree days 57  
Growing Degree Days16 (Base °F )  
Moisture
Dew Point 48°F   
Average Humidity 54    
Maximum Humidity 63    
Minimum Humidity 41    
Precipitation
Precipitation 0.00 in 0.15 in 4.06 in (2004)
Month to date precipitation 1.36  
Year to date precipitation 11.80  
Since 1 June precipitation 1.36  
Snow
Snow 0.00 in 0.00 in 0.00 in (2012)
Month to date snowfall 0.0  
Since 1 July snowfall 51.9  
Snow Depth in   
Wind
Wind Speed 4 mph   
Max Wind Speed 10 mph   
Max Gust Speed 17 mph   
Visibility 10 miles   
Events     

Key: T is trace of precipitation, MM is missing value
Source: NWS Daily Summary
Time(CDT)TemperatureDew PointHumidity Pressure Visibility Wind DirectionWind SpeedGust SpeedPrecipitationEvents Conditions
12:12 AM 64.6°F 40.3°F 41% 30.06 in 10.0 miles NE 3.5 mph - N/A   Scattered Clouds
12:32 AM 64.4°F 40.5°F 41% 30.05 in 10.0 miles Calm Calm - N/A   Clear
12:52 AM 64.0°F 40.6°F 42% 30.05 in 10.0 miles Calm Calm - N/A   Clear
1:12 AM 63.9°F 41.0°F 43% 30.04 in 10.0 miles Calm Calm - N/A   Clear
1:32 AM 63.9°F 40.1°F 42% 30.03 in 10.0 miles NE 6.9 mph - N/A   Scattered Clouds
1:52 AM 63.7°F 40.5°F 43% 30.03 in 10.0 miles ENE 4.6 mph - N/A   Clear
2:12 AM 63.5°F 41.0°F 44% 30.03 in 10.0 miles Calm Calm - N/A   Clear
2:32 AM 63.1°F 41.9°F 46% 30.03 in 10.0 miles Calm Calm - N/A   Clear
2:52 AM 62.6°F 43.3°F 49% 30.02 in 10.0 miles ENE 3.5 mph - N/A   Clear
3:12 AM 62.6°F 42.4°F 48% 30.02 in 10.0 miles ENE 5.8 mph - N/A   Mostly Cloudy
3:32 AM 62.4°F 42.6°F 48% 30.02 in 10.0 miles East 3.5 mph - N/A   Overcast
3:52 AM 61.9°F 42.8°F 50% 30.02 in 10.0 miles ESE 4.6 mph - N/A   Overcast
4:12 AM 61.5°F 42.6°F 50% 30.02 in 10.0 miles ESE 5.8 mph - N/A   Overcast
4:32 AM 61.3°F 42.8°F 51% 30.02 in 10.0 miles ESE 5.8 mph - N/A   Overcast
4:52 AM 61.0°F 43.3°F 52% 30.01 in 10.0 miles East 6.9 mph - N/A   Overcast
5:12 AM 60.8°F 43.9°F 54% 30.02 in 10.0 miles East 5.8 mph - N/A   Overcast
5:32 AM 60.6°F 44.6°F 56% 30.02 in 10.0 miles ESE 5.8 mph - N/A   Overcast
5:52 AM 60.6°F 45.0°F 56% 30.02 in 10.0 miles ESE 5.8 mph - N/A   Overcast
6:12 AM 60.6°F 45.7°F 58% 30.02 in 10.0 miles ESE 5.8 mph - N/A   Overcast
6:32 AM 60.1°F 46.4°F 61% 30.03 in 10.0 miles ESE 5.8 mph - N/A   Overcast
6:52 AM 60.3°F 46.6°F 61% 30.03 in 10.0 miles ESE 3.5 mph - N/A   Mostly Cloudy
7:12 AM 60.3°F 47.3°F 62% 30.03 in 10.0 miles ESE 8.1 mph - N/A   Scattered Clouds
7:32 AM 60.8°F 48.2°F 63% 30.03 in 10.0 miles SE 5.8 mph - N/A   Mostly Cloudy
7:52 AM 61.7°F 48.7°F 62% 30.04 in 10.0 miles SE 3.5 mph - N/A   Overcast
8:12 AM 62.4°F 49.6°F 63% 30.05 in 10.0 miles SE 4.6 mph - N/A   Overcast
8:32 AM 63.5°F 50.5°F 63% 30.05 in 10.0 miles SE 5.8 mph - N/A   Mostly Cloudy
8:52 AM 64.2°F 51.4°F 63% 30.04 in 10.0 miles Calm Calm - N/A   Overcast
9:12 AM 65.3°F 52.0°F 62% 30.04 in 10.0 miles South 4.6 mph - N/A   Scattered Clouds
9:33 AM 66.2°F 52.2°F 61% 30.04 in 10.0 miles ESE 3.5 mph - N/A   Clear
10:12 AM 68.2°F 51.3°F 55% 30.05 in 10.0 miles Calm Calm - N/A   Mostly Cloudy
10:32 AM 68.5°F 51.1°F 54% 30.04 in 10.0 miles WNW 3.5 mph - N/A   Overcast
10:52 AM 68.9°F 47.5°F 46% 30.03 in 10.0 miles Calm Calm - N/A   Scattered Clouds
11:32 AM 70.3°F 47.5°F 44% 30.03 in 10.0 miles WNW 4.6 mph - N/A   Overcast
11:52 AM 67.5°F 50.2°F 54% 30.02 in 10.0 miles WNW 8.1 mph - N/A   Overcast
12:12 PM 66.7°F 49.6°F 54% 30.02 in 10.0 miles WNW 9.2 mph - N/A   Overcast
12:32 PM 66.7°F 50.0°F 55% 30.02 in 10.0 miles WNW 6.9 mph - N/A   Overcast
12:52 PM 68.9°F 50.2°F 51% 30.01 in 10.0 miles North 5.8 mph - N/A   Scattered Clouds
1:12 PM 70.7°F 50.7°F 49% 30.01 in 10.0 miles NNW 4.6 mph - N/A   Clear
1:32 PM 71.4°F 50.0°F 47% 30.00 in 10.0 miles North 3.5 mph - N/A   Mostly Cloudy
3:12 PM 67.6°F 50.2°F 54% 29.99 in 10.0 miles North 9.2 mph - N/A   Overcast
3:32 PM 66.6°F 50.4°F 56% 29.99 in 10.0 miles North 9.2 mph - N/A   Overcast
3:52 PM 66.2°F 50.9°F 58% 29.99 in 10.0 miles NNE 6.9 mph - N/A   Overcast
4:12 PM 65.8°F 50.9°F 58% 29.99 in 10.0 miles NNE 6.9 mph - N/A   Overcast
4:32 PM 65.7°F 51.8°F 61% 29.99 in 10.0 miles NNE 10.4 mph 17.3 mph N/A   Overcast
4:52 PM 66.2°F 52.2°F 61% 29.99 in 10.0 miles NNE 10.4 mph 16.1 mph N/A   Overcast
5:12 PM 67.1°F 49.8°F 54% 29.99 in 10.0 miles NNE 4.6 mph 16.1 mph N/A   Overcast
5:32 PM 67.6°F 48.2°F 50% 29.99 in 10.0 miles NE 8.1 mph - N/A   Overcast
5:52 PM 68.2°F 48.0°F 48% 29.99 in 10.0 miles NNE 4.6 mph - N/A   Overcast
6:12 PM 68.9°F 46.6°F 45% 29.98 in 10.0 miles NNE 3.5 mph - N/A   Mostly Cloudy
6:32 PM 68.5°F 47.3°F 47% 29.98 in 10.0 miles NNE 8.1 mph - N/A   Overcast
6:52 PM 68.0°F 47.7°F 48% 29.99 in 10.0 miles NNE 9.2 mph - N/A   Overcast
7:12 PM 67.5°F 48.6°F 51% 29.98 in 10.0 miles North 6.9 mph - N/A   Overcast
7:32 PM 67.3°F 48.9°F 52% 29.98 in 10.0 miles Calm Calm - N/A   Overcast
7:52 PM 67.1°F 48.7°F 52% 29.98 in 10.0 miles NNE 4.6 mph - N/A   Mostly Cloudy
8:12 PM 66.6°F 49.5°F 54% 29.98 in 10.0 miles Calm Calm - N/A   Clear
8:32 PM 66.2°F 49.6°F 55% 29.98 in 10.0 miles Calm Calm - N/A   Clear
8:52 PM 65.5°F 49.6°F 57% 29.98 in 10.0 miles North 3.5 mph - N/A   Clear
9:12 PM 65.1°F 50.0°F 58% 29.98 in 10.0 miles NNE 3.5 mph - N/A   Clear
9:32 PM 64.8°F 50.0°F 59% 29.99 in 10.0 miles Calm Calm - N/A   Scattered Clouds
9:52 PM 64.4°F 50.2°F 60% 29.99 in 10.0 miles NNE 3.5 mph - N/A   Scattered Clouds
10:12 PM 64.0°F 50.5°F 61% 29.99 in 10.0 miles Calm Calm - N/A   Clear
10:32 PM 63.7°F 50.9°F 63% 29.99 in 10.0 miles NNE 3.5 mph - N/A   Clear
10:52 PM 63.5°F 50.9°F 63% 29.99 in 10.0 miles NNE 4.6 mph - N/A   Clear
11:12 PM 63.5°F 50.5°F 63% 29.99 in 10.0 miles NNE 3.5 mph - N/A   Clear
11:32 PM 63.5°F 50.5°F 63% 29.99 in 10.0 miles NNE 3.5 mph - N/A   Clear
11:53 PM 63.1°F 50.5°F 63% 29.98 in 10.0 miles NNE 3.5 mph - N/A   Clear
Astronomy
Sunrise:05:27 AM (CDT) Moon Rise:05:06 PM (CDT)6/9
Sunset:08:51 PM (CDT) Moon Set:03:02 AM (CDT)6/9
Moon Phase
Jun. 09 Jun. 13 Jun. 19 Jun. 27 Jul. 05

Copyright © 2016 The Weather Underground, Inc.